Weather History for KOXV - August, 2013

Change the Weather History Date:

Tuesday, August 27, 2013

  Actual Average Record
Temperature  
Mean Temperature 86 °F -  
Max Temperature 96 °F 83 °F 100 °F (1983)
Min Temperature 75 °F 62 °F 47 °F (1967)
Cooling Degree Days 20    
Growing Degree Days 36 (Base 50)    
Moisture  
Dew Point 67 °F    
Average Humidity 57    
Maximum Humidity 78    
Minimum Humidity 34    
Precipitation  
Precipitation 0.00 in - - ()
Sea Level Pressure  
Sea Level Pressure 29.95 in    
Wind  
Wind Speed 11 mph (SW)    
Max Wind Speed 18 mph    
Max Gust Speed 28 mph    
Visibility 10 miles    
Events      
Averages and records for this station are not official NWS values.
T = Trace of Precipitation, MM = Missing Value Source: NWS Daily Summary

Daily Weather History Graph

Daily Weather History Graph

Search for Another Location

Airport or City:

Trip Planner

Search our weather history database for the weather conditions in past years. The results will help you decide how hot, cold, wet, or windy it might be!

Date:

Astronomy

Aug. 27, 2013 Rise Set
Actual Time 6:34 AM CDT 7:52 PM CDT
Civil Twilight 6:05 AM CDT 8:21 PM CDT
Nautical Twilight 5:30 AM CDT 8:55 PM CDT
Astronomical Twilight 4:54 AM CDT 9:31 PM CDT
Moon 11:41 PM CDT (8/27) 1:37 PM CDT (8/27)
Length of Visible Light 14h 16m
Length of Day
13h 18m
Waning Gibbous, 57% of the Moon is Illuminated
Aug 27
Waning Gibbous
Aug 28
Last Quarter
Sep 5
New
Sep 12
First Quarter
Sep 19
Full

Hourly Weather History & Observations

Time (CDT) Temp. Heat Index Dew Point Humidity Pressure Visibility Wind Dir Wind Speed Gust Speed Precip Events Conditions
12:15 AM 78.8 °F - 66.2 °F 65% 30.00 in 10.0 mi SSW 10.4 mph 16.1 mph N/A   Clear
12:35 AM 78.8 °F - 66.2 °F 65% 29.99 in 10.0 mi SW 11.5 mph - N/A   Clear
12:55 AM 78.8 °F - 66.2 °F 65% 30.00 in 10.0 mi SSW 9.2 mph 15.0 mph N/A   Clear
1:15 AM 78.8 °F - 66.2 °F 65% 29.99 in 10.0 mi SW 11.5 mph - N/A   Clear
1:35 AM 78.8 °F - 66.2 °F 65% 29.99 in 10.0 mi SW 11.5 mph - N/A   Clear
1:55 AM 78.8 °F - 68.0 °F 69% 29.99 in 10.0 mi SW 10.4 mph 17.3 mph N/A   Clear
2:15 AM 78.8 °F - 68.0 °F 69% 29.99 in 10.0 mi SW 10.4 mph - N/A   Clear
2:35 AM 78.8 °F - 68.0 °F 69% 29.98 in 10.0 mi SW 10.4 mph 16.1 mph N/A   Clear
2:55 AM 78.8 °F - 68.0 °F 69% 29.98 in 10.0 mi SW 9.2 mph - N/A   Clear
3:15 AM 77.0 °F - 68.0 °F 74% 29.98 in 10.0 mi SSW 10.4 mph - N/A   Clear
3:35 AM 77.0 °F - 68.0 °F 74% 29.98 in 10.0 mi SW 9.2 mph - N/A   Clear
3:55 AM 77.0 °F - 68.0 °F 74% 29.98 in 10.0 mi SW 9.2 mph - N/A   Clear
4:15 AM 77.0 °F - 68.0 °F 74% 29.97 in 10.0 mi SW 9.2 mph - N/A   Clear
4:35 AM 77.0 °F - 68.0 °F 74% 29.97 in 10.0 mi SW 10.4 mph - N/A   Clear
4:55 AM 77.0 °F - 68.0 °F 74% 29.97 in 10.0 mi SW 9.2 mph - N/A   Clear
5:15 AM 75.2 °F - 68.0 °F 78% 29.97 in 10.0 mi SW 8.1 mph - N/A   Clear
5:35 AM 75.2 °F - 68.0 °F 78% 29.97 in 10.0 mi SW 9.2 mph 16.1 mph N/A   Clear
5:55 AM 75.2 °F - 68.0 °F 78% 29.98 in 10.0 mi SW 10.4 mph - N/A   Clear
6:15 AM 75.2 °F - 68.0 °F 78% 29.98 in 10.0 mi SW 9.2 mph - N/A   Clear
6:35 AM 75.2 °F - 68.0 °F 78% 29.99 in 10.0 mi SW 10.4 mph - N/A   Clear
6:55 AM 75.2 °F - 68.0 °F 78% 29.99 in 10.0 mi SW 10.4 mph - N/A   Clear
7:15 AM 75.2 °F - 68.0 °F 78% 29.99 in 10.0 mi SW 10.4 mph - N/A   Clear
7:35 AM 75.2 °F - 68.0 °F 78% 29.99 in 10.0 mi SW 10.4 mph 18.4 mph N/A   Clear
7:55 AM 77.0 °F - 68.0 °F 74% 29.99 in 10.0 mi SW 11.5 mph 18.4 mph N/A   Clear
8:15 AM 77.0 °F - 68.0 °F 74% 29.99 in 10.0 mi SW 11.5 mph 18.4 mph N/A   Clear
8:35 AM 78.8 °F - 68.0 °F 69% 29.99 in 10.0 mi SW 11.5 mph - N/A   Clear
8:55 AM 80.6 °F 83.2 °F 68.0 °F 65% 29.98 in 10.0 mi SW 12.7 mph 19.6 mph N/A   Clear
9:15 AM 82.4 °F 85.4 °F 68.0 °F 62% 29.98 in 10.0 mi WSW 13.8 mph - N/A   Clear
9:35 AM 82.4 °F 85.4 °F 68.0 °F 62% 29.98 in 10.0 mi WSW 16.1 mph - N/A   Clear
9:55 AM 84.2 °F 87.3 °F 68.0 °F 58% 29.98 in 10.0 mi WSW 11.5 mph 20.7 mph N/A   Clear
10:15 AM 86.0 °F 89.4 °F 68.0 °F 55% 29.98 in 10.0 mi WSW 16.1 mph 24.2 mph N/A   Clear
10:35 AM 86.0 °F 89.4 °F 68.0 °F 55% 29.98 in 10.0 mi SW 13.8 mph 21.9 mph N/A   Clear
10:55 AM 87.8 °F 91.4 °F 68.0 °F 52% 29.98 in 10.0 mi WSW 10.4 mph 27.6 mph N/A   Clear
11:15 AM 89.6 °F 93.4 °F 68.0 °F 49% 29.97 in 10.0 mi SW 11.5 mph 23.0 mph N/A   Clear
11:35 AM 89.6 °F 93.4 °F 68.0 °F 49% 29.97 in 10.0 mi SW 15.0 mph - N/A   Clear
11:55 AM 91.4 °F 95.4 °F 68.0 °F 46% 29.96 in 10.0 mi SW 17.3 mph 24.2 mph N/A   Clear
12:15 PM 91.4 °F 94.0 °F 66.2 °F 43% 29.96 in 10.0 mi WSW 18.4 mph 24.2 mph N/A   Clear
12:35 PM 93.2 °F 97.7 °F 68.0 °F 44% 29.95 in 10.0 mi SW 15.0 mph 24.2 mph N/A   Clear
12:55 PM 93.2 °F 97.7 °F 68.0 °F 44% 29.94 in 10.0 mi SW 15.0 mph 26.5 mph N/A   Clear
1:15 PM 93.2 °F 96.2 °F 66.2 °F 41% 29.93 in 10.0 mi SW 16.1 mph 25.3 mph N/A   Clear
1:35 PM 95.0 °F 98.5 °F 66.2 °F 39% 29.93 in 10.0 mi SW 16.1 mph - N/A   Clear
1:55 PM 95.0 °F 98.5 °F 66.2 °F 39% 29.92 in 10.0 mi SW 16.1 mph 24.2 mph N/A   Clear
2:15 PM 95.0 °F 98.5 °F 66.2 °F 39% 29.93 in 10.0 mi SW 13.8 mph 24.2 mph N/A   Clear
2:35 PM 95.0 °F 98.5 °F 66.2 °F 39% 29.92 in 10.0 mi SW 16.1 mph 25.3 mph N/A   Clear
2:55 PM 96.8 °F 100.7 °F 66.2 °F 37% 29.91 in 10.0 mi SW 17.3 mph 24.2 mph N/A   Clear
3:15 PM 96.8 °F 100.7 °F 66.2 °F 37% 29.91 in 10.0 mi SW 16.1 mph 21.9 mph N/A   Clear
3:35 PM 96.8 °F 100.7 °F 66.2 °F 37% 29.90 in 10.0 mi SW 15.0 mph 27.6 mph N/A   Clear
3:55 PM 96.8 °F 100.7 °F 66.2 °F 37% 29.90 in 10.0 mi SW 15.0 mph 24.2 mph N/A   Clear
4:15 PM 96.8 °F 99.0 °F 64.4 °F 34% 29.90 in 10.0 mi SW 18.4 mph 27.6 mph N/A   Clear
4:35 PM 96.8 °F 99.0 °F 64.4 °F 34% 29.90 in 10.0 mi SW 16.1 mph 27.6 mph N/A   Clear
4:55 PM 96.8 °F 100.7 °F 66.2 °F 37% 29.90 in 10.0 mi WSW 13.8 mph 21.9 mph N/A   Clear
5:15 PM 96.8 °F 99.0 °F 64.4 °F 34% 29.90 in 10.0 mi WSW 17.3 mph 25.3 mph N/A   Clear
5:35 PM 95.0 °F 97.0 °F 64.4 °F 36% 29.89 in 10.0 mi SW 12.7 mph 24.2 mph N/A   Clear
5:55 PM 95.0 °F 97.0 °F 64.4 °F 36% 29.90 in 10.0 mi WSW 16.1 mph 24.2 mph N/A   Clear
6:15 PM 95.0 °F 97.0 °F 64.4 °F 36% 29.89 in 10.0 mi WSW 10.4 mph 18.4 mph N/A   Clear
6:35 PM 93.2 °F 94.1 °F 62.6 °F 36% 29.89 in 10.0 mi WSW 12.7 mph 20.7 mph N/A   Clear
6:55 PM 93.2 °F 94.9 °F 64.4 °F 38% 29.89 in 10.0 mi SW 11.5 mph 18.4 mph N/A   Clear
7:15 PM 91.4 °F 93.2 °F 64.4 °F 41% 29.90 in 10.0 mi SW 11.5 mph 18.4 mph N/A   Clear
7:35 PM 89.6 °F 92.2 °F 66.2 °F 46% 29.90 in 10.0 mi SW 8.1 mph - N/A   Clear
7:55 PM 87.8 °F 90.4 °F 66.2 °F 49% 29.91 in 10.0 mi WSW 8.1 mph - N/A   Clear
8:15 PM 87.8 °F 90.4 °F 66.2 °F 49% 29.91 in 10.0 mi SW 6.9 mph 13.8 mph N/A   Clear
8:35 PM 86.0 °F 88.2 °F 66.2 °F 51% 29.92 in 10.0 mi SW 5.8 mph - N/A   Clear
8:55 PM 84.2 °F 86.6 °F 66.2 °F 55% 29.93 in 10.0 mi SW 6.9 mph - N/A   Clear
9:15 PM 84.2 °F 86.6 °F 66.2 °F 55% 29.93 in 10.0 mi SW 6.9 mph - N/A   Clear
9:35 PM 82.4 °F 84.6 °F 66.2 °F 58% 29.94 in 10.0 mi SW 5.8 mph - N/A   Clear
9:55 PM 82.4 °F 84.6 °F 66.2 °F 58% 29.94 in 10.0 mi SW 5.8 mph - N/A   Clear
10:15 PM 80.6 °F 82.7 °F 66.2 °F 61% 29.94 in 10.0 mi SW 6.9 mph - N/A   Clear
10:35 PM 80.6 °F 82.7 °F 66.2 °F 61% 29.94 in 10.0 mi SW 6.9 mph - N/A   Clear
10:55 PM 78.8 °F - 66.2 °F 65% 29.94 in 10.0 mi SSW 6.9 mph - N/A   Clear
11:15 PM 78.8 °F - 66.2 °F 65% 29.94 in 10.0 mi SW 6.9 mph - N/A   Clear
11:35 PM 78.8 °F - 68.0 °F 69% 29.94 in 10.0 mi SW 5.8 mph - N/A   Clear
11:55 PM 78.8 °F - 66.2 °F 65% 29.94 in 10.0 mi SW 6.9 mph - N/A   Clear